| time (UTC) | temp F | wind direction | speed knots | gust knots | rain 1hr in | rain 24hr in | rain mn in | humidity % | barometer mb |
| 20260506025003 | 63 | 333 | 0.0 | 0.0 | 0.00 | 0.00 | 0.00 | 78 | 1013.2 |
| 20260506024459 | 64 | 340 | 0.9 | 1.7 | 0.00 | 0.00 | 0.00 | 74 | 1013.1 |
| 20260506023955 | 65 | 344 | 0.0 | 0.0 | 0.00 | 0.00 | 0.00 | 73 | 1013.0 |
| 20260506023452 | 65 | 344 | 0.0 | 0.0 | 0.00 | 0.00 | 0.00 | 71 | 1012.9 |
| 20260506022949 | 65 | 344 | 0.0 | 0.0 | 0.00 | 0.00 | 0.00 | 72 | 1012.9 |
| 20260506022447 | 65 | 344 | 0.0 | 0.9 | 0.00 | 0.00 | 0.00 | 72 | 1013.0 |
| 20260506021945 | 65 | 344 | 0.9 | 0.9 | 0.00 | 0.00 | 0.00 | 72 | 1013.1 |
| 20260506021442 | 65 | 9 | 0.0 | 0.0 | 0.00 | 0.00 | 0.00 | 72 | 1012.9 |
| 20260506020939 | 65 | 9 | 0.0 | 0.0 | 0.00 | 0.00 | 0.00 | 72 | 1012.9 |
| 20260506020436 | 65 | 9 | 0.0 | 0.0 | 0.00 | 0.00 | 0.00 | 75 | 1012.8 |
| 20260506015933 | 66 | 8 | 0.0 | 0.0 | 0.00 | 0.00 | 0.00 | 71 | 1012.9 |
| 20260506015431 | 65 | 9 | 0.0 | 0.0 | 0.00 | 0.00 | 0.00 | 72 | 1013.1 |
| 20260506014928 | 65 | 9 | 0.0 | 0.0 | 0.00 | 0.00 | 0.00 | 73 | 1012.8 |
| 20260506014425 | 65 | 9 | 0.0 | 0.0 | 0.00 | 0.00 | 0.00 | 73 | 1012.9 |
| 20260506013921 | 65 | 9 | 0.0 | 0.0 | 0.00 | 0.00 | 0.00 | 72 | 1012.8 |
| 20260506013419 | 65 | 9 | 0.0 | 0.0 | 0.00 | 0.00 | 0.00 | 72 | 1012.7 |
| 20260506012915 | 65 | 9 | 0.0 | 0.0 | 0.00 | 0.00 | 0.00 | 73 | 1012.7 |
| 20260506012412 | 65 | 345 | 0.9 | 0.9 | 0.00 | 0.00 | 0.00 | 72 | 1012.8 |
| 20260506011909 | 65 | 6 | 0.0 | 0.9 | 0.00 | 0.00 | 0.00 | 73 | 1012.8 |
| 20260506011406 | 65 | 4 | 0.9 | 0.9 | 0.00 | 0.00 | 0.00 | 72 | 1012.7 |
| 20260506010903 | 65 | 358 | 1.7 | 1.7 | 0.00 | 0.00 | 0.00 | 73 | 1012.7 |
| 20260506010401 | 66 | 1 | 1.7 | 1.7 | 0.00 | 0.00 | 0.00 | 71 | 1012.8 |
| 20260506005858 | 65 | 298 | 1.7 | 1.7 | 0.00 | 0.00 | 0.00 | 72 | 1012.8 |
| 20260506005355 | 65 | 348 | 1.7 | 1.7 | 0.00 | 0.00 | 0.00 | 73 | 1012.7 |
| 20260506004850 | 66 | 343 | 1.7 | 1.7 | 0.00 | 0.00 | 0.00 | 71 | 1012.8 |
| 20260506004348 | 65 | 347 | 0.9 | 1.7 | 0.00 | 0.00 | 0.00 | 72 | 1012.7 |
| 20260506003844 | 65 | 331 | 0.0 | 0.9 | 0.00 | 0.00 | 0.00 | 70 | 1012.7 |
| 20260506003341 | 65 | 7 | 1.7 | 1.7 | 0.00 | 0.00 | 0.00 | 73 | 1012.9 |
| 20260506002837 | 64 | 359 | 1.7 | 1.7 | 0.00 | 0.00 | 0.00 | 74 | 1012.7 |
| 20260506002334 | 63 | 6 | 1.7 | 2.6 | 0.00 | 0.00 | 0.00 | 76 | 1012.5 |
| 20260506001829 | 63 | 6 | 1.7 | 1.7 | 0.00 | 0.00 | 0.00 | 75 | 1012.8 |
| 20260506001327 | 63 | 5 | 0.9 | 0.9 | 0.00 | 0.00 | 0.00 | 75 | 1012.7 |
| 20260506000823 | 64 | 352 | 1.7 | 1.7 | 0.00 | 0.00 | 0.00 | 75 | 1012.9 |
| 20260506000323 | 64 | 13 | 0.9 | 1.7 | 0.00 | 0.00 | 0.00 | 73 | 1012.8 |
| 20260505235818 | 64 | 270 | 1.7 | 1.7 | 0.00 | 0.00 | 0.00 | 73 | 1012.7 |
| 20260505235315 | 63 | 333 | 0.9 | 1.7 | 0.00 | 0.00 | 0.00 | 75 | 1012.8 |
| 20260505234812 | 63 | 2 | 0.9 | 1.7 | 0.00 | 0.00 | 0.00 | 75 | 1012.7 |
| 20260505234310 | 62 | 6 | 1.7 | 1.7 | 0.00 | 0.00 | 0.00 | 77 | 1013.0 |
| 20260505233807 | 63 | 314 | 2.6 | 2.6 | 0.00 | 0.00 | 0.00 | 75 | 1012.9 |
| 20260505233305 | 63 | 8 | 1.7 | 1.7 | 0.00 | 0.00 | 0.00 | 75 | 1012.9 |
| 20260505232801 | 63 | 0 | 0.0 | 0.0 | 0.00 | 0.00 | 0.00 | 75 | 1013.0 |
| 20260505232259 | 62 | 0 | 1.7 | 1.7 | 0.00 | 0.00 | 0.00 | 75 | 1013.1 |
| 20260505231755 | 62 | 347 | 0.9 | 0.9 | 0.00 | 0.00 | 0.00 | 76 | 1013.0 |
| 20260505231254 | 62 | 332 | 2.6 | 2.6 | 0.00 | 0.00 | 0.00 | 75 | 1013.2 |
| 20260505230752 | 62 | 1 | 1.7 | 1.7 | 0.00 | 0.00 | 0.00 | 76 | 1013.0 |
| 20260505230248 | 62 | 13 | 0.0 | 0.0 | 0.00 | 0.00 | 0.00 | 75 | 1013.2 |
| 20260505225745 | 62 | 20 | 0.9 | 0.9 | 0.00 | 0.00 | 0.00 | 76 | 1013.4 |
| 20260505225242 | 62 | 9 | 0.9 | 0.9 | 0.00 | 0.00 | 0.00 | 75 | 1013.1 |
| 20260505224737 | 62 | 9 | 0.0 | 0.0 | 0.00 | 0.00 | 0.00 | 76 | 1013.2 |
| 20260505224235 | 62 | 3 | 1.7 | 1.7 | 0.00 | 0.00 | 0.00 | 76 | 1013.1 |
| 20260505223732 | 63 | 9 | 2.6 | 2.6 | 0.00 | 0.00 | 0.00 | 75 | 1013.2 |
| 20260505223229 | 62 | 9 | 1.7 | 1.7 | 0.00 | 0.00 | 0.00 | 76 | 1013.5 |
| 20260505222725 | 62 | 346 | 0.0 | 0.0 | 0.00 | 0.00 | 0.00 | 75 | 1013.6 |
| 20260505222221 | 62 | 2 | 1.7 | 2.6 | 0.00 | 0.00 | 0.00 | 75 | 1013.3 |
| 20260505221718 | 62 | 358 | 1.7 | 2.6 | 0.00 | 0.00 | 0.00 | 76 | 1013.5 |
| 20260505221215 | 62 | 356 | 2.6 | 2.6 | 0.00 | 0.00 | 0.00 | 74 | 1013.3 |
| 20260505220712 | 62 | 9 | 0.0 | 0.9 | 0.00 | 0.00 | 0.00 | 75 | 1013.4 |
| 20260505220210 | 63 | 289 | 0.9 | 2.6 | 0.00 | 0.00 | 0.00 | 75 | 1013.3 |
| 20260505215707 | 62 | 7 | 0.9 | 0.9 | 0.00 | 0.00 | 0.00 | 75 | 1013.5 |
| 20260505215205 | 62 | 5 | 1.7 | 2.6 | 0.00 | 0.00 | 0.00 | 76 | 1013.6 |
| 20260505214702 | 62 | 19 | 0.9 | 1.7 | 0.00 | 0.00 | 0.00 | 76 | 1013.4 |
| 20260505214200 | 62 | 348 | 2.6 | 2.6 | 0.00 | 0.00 | 0.00 | 76 | 1013.6 |
| 20260505213657 | 62 | 14 | 0.0 | 0.0 | 0.00 | 0.00 | 0.00 | 76 | 1013.6 |
| 20260505213154 | 62 | 20 | 0.9 | 0.9 | 0.00 | 0.00 | 0.00 | 76 | 1013.5 |
| 20260505212649 | 62 | 13 | 0.9 | 0.9 | 0.00 | 0.00 | 0.00 | 75 | 1013.5 |
| 20260505212147 | 63 | 8 | 0.0 | 0.0 | 0.00 | 0.00 | 0.00 | 74 | 1013.6 |
| 20260505211644 | 62 | 3 | 0.0 | 0.0 | 0.00 | 0.00 | 0.00 | 75 | 1013.8 |
| 20260505211141 | 62 | 1 | 0.9 | 1.7 | 0.00 | 0.00 | 0.00 | 76 | 1013.7 |
| 20260505210638 | 61 | 20 | 0.9 | 0.9 | 0.00 | 0.00 | 0.00 | 77 | 1013.8 |
| 20260505210135 | 62 | 12 | 2.6 | 2.6 | 0.00 | 0.00 | 0.00 | 76 | 1013.6 |
| 20260505205632 | 61 | 11 | 0.0 | 0.0 | 0.00 | 0.00 | 0.00 | 77 | 1013.6 |
| 20260505205131 | 61 | 8 | 1.7 | 2.6 | 0.00 | 0.00 | 0.00 | 77 | 1013.7 |
| 20260505204627 | 61 | 8 | 2.6 | 3.5 | 0.00 | 0.00 | 0.00 | 78 | 1013.9 |
| 20260505204125 | 61 | 344 | 1.7 | 1.7 | 0.00 | 0.00 | 0.00 | 77 | 1013.7 |
| 20260505203621 | 61 | 301 | 0.0 | 0.0 | 0.00 | 0.00 | 0.00 | 77 | 1013.7 |
| 20260505203119 | 60 | 345 | 1.7 | 1.7 | 0.00 | 0.00 | 0.00 | 79 | 1014.0 |
| 20260505202614 | 60 | 332 | 1.7 | 1.7 | 0.00 | 0.00 | 0.00 | 79 | 1013.8 |
| 20260505202110 | 60 | 271 | 1.7 | 2.6 | 0.00 | 0.00 | 0.00 | 79 | 1013.9 |
| 20260505201607 | 60 | 345 | 1.7 | 1.7 | 0.00 | 0.00 | 0.00 | 78 | 1013.9 |
| 20260505201105 | 61 | 2 | 0.9 | 1.7 | 0.00 | 0.00 | 0.00 | 78 | 1013.8 |
| 20260505200602 | 61 | 356 | 0.0 | 0.0 | 0.00 | 0.00 | 0.00 | 78 | 1013.8 |
| 20260505200059 | 60 | 345 | 1.7 | 1.7 | 0.00 | 0.00 | 0.00 | 79 | 1013.9 |
| 20260505195555 | 60 | 5 | 1.7 | 2.6 | 0.00 | 0.00 | 0.00 | 78 | 1013.8 |
| 20260505195053 | 60 | 14 | 0.9 | 1.7 | 0.00 | 0.00 | 0.00 | 78 | 1013.9 |
| 20260505194550 | 61 | 2 | 1.7 | 2.6 | 0.00 | 0.00 | 0.00 | 78 | 1013.8 |
| 20260505194045 | 60 | 2 | 0.9 | 1.7 | 0.00 | 0.00 | 0.00 | 80 | 1014.2 |
| 20260505193543 | 60 | 10 | 1.7 | 2.6 | 0.00 | 0.00 | 0.00 | 79 | 1014.0 |
| 20260505193040 | 60 | 347 | 0.9 | 1.7 | 0.00 | 0.00 | 0.00 | 80 | 1014.1 |
| 20260505192538 | 60 | 3 | 1.7 | 1.7 | 0.00 | 0.00 | 0.00 | 79 | 1013.9 |
| 20260505192036 | 60 | 10 | 0.9 | 0.9 | 0.00 | 0.00 | 0.00 | 79 | 1013.8 |
| 20260505191534 | 60 | 345 | 1.7 | 1.7 | 0.00 | 0.00 | 0.00 | 80 | 1014.0 |
| 20260505191031 | 60 | 2 | 1.7 | 1.7 | 0.00 | 0.00 | 0.00 | 80 | 1013.9 |
| 20260505190526 | 60 | 2 | 0.0 | 0.0 | 0.00 | 0.00 | 0.00 | 78 | 1013.8 |
| 20260505190022 | 60 | 344 | 0.9 | 0.9 | 0.00 | 0.00 | 0.00 | 79 | 1014.1 |
| 20260505185519 | 60 | 355 | 0.0 | 0.9 | 0.00 | 0.00 | 0.00 | 79 | 1013.8 |
| 20260505185015 | 59 | 335 | 0.0 | 0.0 | 0.00 | 0.00 | 0.00 | 80 | 1014.1 |
| 20260505184513 | 59 | 310 | 1.7 | 1.7 | 0.00 | 0.00 | 0.00 | 79 | 1013.9 |
| 20260505184009 | 59 | 356 | 0.9 | 0.9 | 0.00 | 0.00 | 0.00 | 81 | 1013.7 |
| 20260505183506 | 60 | 345 | 1.7 | 2.6 | 0.00 | 0.00 | 0.00 | 80 | 1014.0 |
| 20260505183003 | 60 | 3 | 0.0 | 0.0 | 0.00 | 0.00 | 0.00 | 79 | 1013.8 |
| 20260505182500 | 60 | 3 | 0.0 | 0.0 | 0.00 | 0.00 | 0.00 | 79 | 1013.9 |
| 20260505181956 | 59 | 345 | 0.9 | 1.7 | 0.00 | 0.00 | 0.00 | 81 | 1013.7 |
| 20260505181453 | 58 | 332 | 0.9 | 1.7 | 0.00 | 0.00 | 0.00 | 82 | 1013.8 |
| 20260505180950 | 59 | 315 | 2.6 | 2.6 | 0.00 | 0.00 | 0.00 | 81 | 1013.9 |
| 20260505180446 | 59 | 349 | 0.0 | 0.0 | 0.00 | 0.00 | 0.00 | 82 | 1014.0 |
| 20260505175943 | 59 | 347 | 0.0 | 0.0 | 0.00 | 0.00 | 0.00 | 81 | 1013.9 |
| 20260505175439 | 59 | 100 | 0.0 | 0.0 | 0.00 | 0.00 | 0.00 | 82 | 1013.9 |
| 20260505174936 | 58 | 359 | 0.0 | 0.0 | 0.00 | 0.00 | 0.00 | 83 | 1013.9 |
| 20260505174433 | 57 | 359 | 0.0 | 0.0 | 0.00 | 0.00 | 0.00 | 85 | 1014.0 |
| 20260505173929 | 57 | 359 | 0.0 | 0.0 | 0.00 | 0.00 | 0.00 | 85 | 1013.8 |
| 20260505173426 | 57 | 359 | 0.0 | 0.0 | 0.00 | 0.00 | 0.00 | 86 | 1013.7 |
| 20260505172923 | 57 | 359 | 0.0 | 0.0 | 0.00 | 0.00 | 0.00 | 86 | 1013.7 |
| 20260505172421 | 57 | 353 | 0.0 | 0.0 | 0.00 | 0.00 | 0.00 | 86 | 1013.8 |
| 20260505171920 | 57 | 353 | 0.0 | 0.0 | 0.00 | 0.00 | 0.00 | 86 | 1013.6 |
| 20260505171418 | 56 | 353 | 0.0 | 0.0 | 0.00 | 0.00 | 0.00 | 87 | 1013.7 |
| 20260505170914 | 56 | 349 | 0.0 | 0.0 | 0.00 | 0.00 | 0.00 | 87 | 1013.8 |
| 20260505170411 | 55 | 349 | 0.0 | 0.0 | 0.00 | 0.00 | 0.00 | 89 | 1013.6 |
| 20260505165906 | 55 | 346 | 0.0 | 0.0 | 0.00 | 0.00 | 0.00 | 90 | 1013.6 |
| 20260505165402 | 55 | 359 | 0.0 | 0.9 | 0.00 | 0.00 | 0.00 | 90 | 1013.7 |
| 20260505164857 | 55 | 13 | 0.0 | 0.0 | 0.00 | 0.00 | 0.00 | 91 | 1014.0 |
| 20260505164355 | 55 | 13 | 0.0 | 0.0 | 0.00 | 0.00 | 0.00 | 91 | 1013.9 |
| 20260505163853 | 55 | 13 | 0.9 | 0.9 | 0.00 | 0.00 | 0.00 | 92 | 1014.0 |
| 20260505163352 | 54 | 49 | 0.0 | 0.0 | 0.00 | 0.00 | 0.00 | 92 | 1013.7 |
| 20260505162850 | 54 | 332 | 0.0 | 0.0 | 0.00 | 0.00 | 0.00 | 93 | 1014.0 |
| 20260505162345 | 54 | 332 | 0.0 | 0.0 | 0.00 | 0.00 | 0.00 | 94 | 1013.7 |
| 20260505161843 | 54 | 332 | 0.0 | 0.0 | 0.00 | 0.00 | 0.00 | 94 | 1013.8 |
| 20260505161340 | 54 | 332 | 0.9 | 0.9 | 0.00 | 0.00 | 0.00 | 95 | 1013.8 |
| 20260505160837 | 54 | 347 | 0.9 | 1.7 | 0.00 | 0.00 | 0.00 | 93 | 1013.9 |
| 20260505160335 | 54 | 0 | 0.0 | 0.0 | 0.00 | 0.00 | 0.00 | 92 | 1013.9 |
| 20260505153314 | 54 | 8 | 0.0 | 0.0 | 0.00 | 0.00 | 0.00 | 93 | 1013.6 |
| 20260505152811 | 54 | 8 | 0.0 | 0.0 | 0.00 | 0.00 | 0.00 | 93 | 1013.9 |
| 20260505152307 | 54 | 8 | 0.0 | 0.0 | 0.00 | 0.00 | 0.00 | 93 | 1013.8 |
| 20260505151801 | 53 | 8 | 0.0 | 0.0 | 0.00 | 0.00 | 0.00 | 93 | 1013.8 |
| 20260505151259 | 53 | 9 | 0.0 | 0.0 | 0.00 | 0.00 | 0.00 | 93 | 1013.7 |
| 20260505150755 | 54 | 9 | 0.0 | 0.0 | 0.00 | 0.00 | 0.00 | 93 | 1013.7 |
| 20260505150253 | 54 | 9 | 0.0 | 0.0 | 0.00 | 0.00 | 0.00 | 93 | 1013.8 |
| 20260505140223 | 53 | 331 | 0.0 | 0.0 | 0.00 | 0.00 | 0.00 | 96 | 1013.5 |
| 20260505130147 | 53 | 343 | 0.0 | 0.0 | 0.00 | 0.00 | 0.00 | 96 | 1013.1 |
| 20260505124631 | 53 | 344 | 0.0 | 0.0 | 0.00 | 0.00 | 0.00 | 96 | 1012.8 |
| 20260505124128 | 53 | 344 | 0.0 | 0.0 | 0.00 | 0.00 | 0.00 | 96 | 1012.9 |
| 20260505123624 | 53 | 344 | 0.0 | 0.0 | 0.00 | 0.00 | 0.00 | 95 | 1012.9 |
| 20260505123121 | 53 | 344 | 0.0 | 0.0 | 0.00 | 0.00 | 0.00 | 95 | 1012.8 |
| 20260505122618 | 53 | 344 | 0.0 | 0.0 | 0.00 | 0.00 | 0.00 | 95 | 1012.8 |
| 20260505122114 | 53 | 343 | 0.9 | 0.9 | 0.00 | 0.00 | 0.00 | 95 | 1012.9 |
| 20260505121611 | 53 | 344 | 0.0 | 0.0 | 0.00 | 0.00 | 0.00 | 94 | 1012.8 |
| 20260505121108 | 53 | 344 | 0.0 | 0.0 | 0.00 | 0.00 | 0.00 | 94 | 1012.9 |
| 20260505120604 | 53 | 348 | 0.0 | 0.0 | 0.00 | 0.00 | 0.00 | 94 | 1012.7 |
| 20260505120100 | 53 | 349 | 0.0 | 0.0 | 0.00 | 0.00 | 0.00 | 94 | 1013.0 |
| 20260505115600 | 53 | 332 | 1.7 | 1.7 | 0.00 | 0.00 | 0.00 | 94 | 1012.7 |
| 20260505115057 | 53 | 341 | 0.0 | 0.9 | 0.00 | 0.00 | 0.00 | 94 | 1012.7 |
| 20260505114549 | 53 | 331 | 1.7 | 1.7 | 0.00 | 0.00 | 0.00 | 94 | 1012.9 |
| 20260505114045 | 53 | 343 | 1.7 | 1.7 | 0.00 | 0.00 | 0.00 | 94 | 1012.8 |
| 20260505113541 | 53 | 300 | 3.5 | 3.5 | 0.00 | 0.00 | 0.00 | 94 | 1012.7 |
| 20260505113038 | 53 | 293 | 3.5 | 3.5 | 0.00 | 0.00 | 0.00 | 93 | 1012.9 |
| 20260505112535 | 53 | 359 | 0.0 | 0.0 | 0.00 | 0.00 | 0.00 | 93 | 1012.8 |
| 20260505112033 | 53 | 359 | 0.0 | 0.0 | 0.00 | 0.00 | 0.00 | 93 | 1012.8 |
| 20260505111531 | 53 | 0 | 0.0 | 0.0 | 0.00 | 0.00 | 0.00 | 93 | 1012.8 |
| 20260505111028 | 54 | 0 | 0.0 | 0.0 | 0.00 | 0.00 | 0.00 | 93 | 1012.9 |
| 20260505110525 | 54 | 0 | 0.0 | 0.0 | 0.00 | 0.00 | 0.00 | 93 | 1012.8 |
| 20260505101957 | 54 | 350 | 0.0 | 0.0 | 0.00 | 0.00 | 0.00 | 91 | 1012.4 |
| 20260505101455 | 54 | 350 | 0.0 | 0.0 | 0.00 | 0.00 | 0.00 | 91 | 1012.5 |
| 20260505100952 | 54 | 345 | 0.0 | 0.0 | 0.00 | 0.00 | 0.00 | 91 | 1012.6 |
| 20260505100449 | 54 | 345 | 0.0 | 0.0 | 0.00 | 0.00 | 0.00 | 91 | 1012.4 |
| 20260505095945 | 54 | 344 | 0.0 | 0.0 | 0.00 | 0.00 | 0.00 | 91 | 1012.4 |
| 20260505095442 | 54 | 344 | 0.9 | 0.9 | 0.00 | 0.00 | 0.00 | 91 | 1012.4 |
| 20260505094938 | 54 | 286 | 1.7 | 2.6 | 0.00 | 0.00 | 0.00 | 91 | 1012.4 |
| 20260505094435 | 54 | 345 | 0.9 | 0.9 | 0.00 | 0.00 | 0.00 | 91 | 1012.4 |
| 20260505093931 | 54 | 350 | 0.9 | 1.7 | 0.00 | 0.00 | 0.00 | 90 | 1012.5 |
| 20260505093428 | 54 | 333 | 0.0 | 0.0 | 0.00 | 0.00 | 0.00 | 91 | 1012.3 |
| 20260505092925 | 54 | 340 | 1.7 | 1.7 | 0.00 | 0.00 | 0.00 | 90 | 1012.2 |
| 20260505092423 | 54 | 350 | 0.0 | 0.0 | 0.00 | 0.00 | 0.00 | 90 | 1012.5 |
| 20260505091920 | 54 | 350 | 1.7 | 1.7 | 0.00 | 0.00 | 0.00 | 90 | 1012.3 |
| 20260505091418 | 54 | 350 | 0.9 | 0.9 | 0.00 | 0.00 | 0.00 | 90 | 1012.3 |
| 20260505090916 | 55 | 359 | 1.7 | 1.7 | 0.00 | 0.00 | 0.00 | 89 | 1012.0 |
| 20260505090414 | 55 | 359 | 0.9 | 0.9 | 0.00 | 0.00 | 0.00 | 89 | 1012.2 |
| 20260505085911 | 55 | 359 | 1.7 | 1.7 | 0.00 | 0.00 | 0.00 | 89 | 1012.2 |
| 20260505085409 | 55 | 345 | 0.9 | 0.9 | 0.00 | 0.00 | 0.00 | 89 | 1012.3 |
| 20260505084906 | 55 | 345 | 0.0 | 0.9 | 0.00 | 0.00 | 0.00 | 89 | 1012.2 |
| 20260505084404 | 55 | 345 | 1.7 | 1.7 | 0.00 | 0.00 | 0.00 | 89 | 1012.0 |
| 20260505083901 | 55 | 284 | 2.6 | 2.6 | 0.00 | 0.00 | 0.00 | 89 | 1012.1 |
| 20260505083400 | 55 | 345 | 0.9 | 0.9 | 0.00 | 0.00 | 0.00 | 88 | 1012.1 |
| 20260505082855 | 55 | 345 | 1.7 | 1.7 | 0.00 | 0.00 | 0.00 | 88 | 1012.1 |
| 20260505082351 | 56 | 315 | 0.0 | 1.7 | 0.00 | 0.00 | 0.00 | 88 | 1012.2 |
| 20260505081848 | 56 | 346 | 0.0 | 0.0 | 0.00 | 0.00 | 0.00 | 88 | 1012.1 |
| 20260505081344 | 55 | 346 | 0.0 | 0.0 | 0.00 | 0.00 | 0.00 | 88 | 1012.2 |
| 20260505080841 | 55 | 351 | 0.0 | 0.0 | 0.00 | 0.00 | 0.00 | 88 | 1012.3 |
| 20260505080337 | 56 | 344 | 0.0 | 0.0 | 0.00 | 0.00 | 0.00 | 88 | 1012.3 |
| 20260505075832 | 56 | 349 | 1.7 | 1.7 | 0.00 | 0.00 | 0.00 | 88 | 1012.2 |
| 20260505075330 | 56 | 349 | 0.0 | 0.0 | 0.00 | 0.00 | 0.00 | 87 | 1012.2 |
| 20260505074827 | 56 | 349 | 0.0 | 0.0 | 0.00 | 0.00 | 0.00 | 87 | 1012.2 |
| 20260505074324 | 56 | 345 | 1.7 | 1.7 | 0.00 | 0.00 | 0.00 | 87 | 1012.1 |
| 20260505073822 | 56 | 345 | 0.9 | 1.7 | 0.00 | 0.00 | 0.00 | 87 | 1012.3 |
| 20260505073320 | 56 | 347 | 0.9 | 1.7 | 0.00 | 0.00 | 0.00 | 87 | 1012.1 |
| 20260505072817 | 56 | 250 | 1.7 | 1.7 | 0.00 | 0.00 | 0.00 | 87 | 1011.9 |
| 20260505072313 | 56 | 334 | 0.9 | 0.9 | 0.00 | 0.00 | 0.00 | 87 | 1011.9 |
| 20260505071809 | 56 | 344 | 1.7 | 1.7 | 0.00 | 0.00 | 0.00 | 87 | 1012.1 |
| 20260505071306 | 57 | 299 | 3.5 | 3.5 | 0.00 | 0.00 | 0.00 | 87 | 1012.1 |
| 20260505070804 | 57 | 343 | 1.7 | 1.7 | 0.00 | 0.00 | 0.00 | 86 | 1012.0 |
| 20260505070259 | 57 | 319 | 0.9 | 1.7 | 0.00 | 0.00 | 0.00 | 86 | 1011.8 |
| 20260505065755 | 57 | 332 | 0.9 | 1.7 | 0.00 | 0.00 | 0.00 | 86 | 1012.0 |
| 20260505065252 | 57 | 337 | 0.0 | 0.0 | 0.00 | 0.00 | 0.00 | 86 | 1011.9 |
| 20260505064749 | 57 | 346 | 0.9 | 0.9 | 0.00 | 0.00 | 0.00 | 86 | 1011.9 |
| 20260505064246 | 57 | 346 | 0.9 | 0.9 | 0.00 | 0.00 | 0.00 | 86 | 1012.0 |
| 20260505063744 | 57 | 290 | 3.5 | 3.5 | 0.00 | 0.00 | 0.00 | 86 | 1011.9 |
| 20260505063240 | 57 | 344 | 1.7 | 2.6 | 0.00 | 0.00 | 0.00 | 86 | 1011.8 |
| 20260505062736 | 57 | 314 | 0.9 | 1.7 | 0.00 | 0.00 | 0.00 | 86 | 1011.8 |
| 20260505062234 | 57 | 346 | 1.7 | 1.7 | 0.00 | 0.00 | 0.00 | 85 | 1011.6 |
| 20260505061730 | 57 | 346 | 0.0 | 0.0 | 0.00 | 0.00 | 0.00 | 85 | 1011.6 |
| 20260505061229 | 57 | 346 | 0.0 | 0.9 | 0.00 | 0.00 | 0.00 | 85 | 1011.5 |
| 20260505060726 | 57 | 344 | 0.9 | 1.7 | 0.00 | 0.00 | 0.00 | 85 | 1011.6 |
| 20260505060223 | 57 | 344 | 1.7 | 1.7 | 0.00 | 0.00 | 0.00 | 85 | 1011.8 |
| 20260505055718 | 57 | 345 | 0.0 | 0.0 | 0.00 | 0.00 | 0.00 | 85 | 1011.8 |
| 20260505055214 | 58 | 344 | 0.0 | 0.0 | 0.00 | 0.00 | 0.00 | 85 | 1011.6 |
| 20260505054712 | 58 | 345 | 0.0 | 0.0 | 0.00 | 0.00 | 0.00 | 84 | 1011.8 |
| 20260505054210 | 58 | 345 | 0.0 | 0.0 | 0.00 | 0.00 | 0.00 | 84 | 1011.8 |
| 20260505053708 | 58 | 350 | 0.0 | 0.0 | 0.00 | 0.00 | 0.00 | 84 | 1011.5 |
| 20260505053204 | 58 | 350 | 0.0 | 0.9 | 0.00 | 0.00 | 0.00 | 84 | 1011.9 |
| 20260505052702 | 58 | 1 | 0.0 | 0.0 | 0.00 | 0.00 | 0.00 | 84 | 1011.9 |
| 20260505052158 | 58 | 312 | 2.6 | 3.5 | 0.00 | 0.00 | 0.00 | 84 | 1011.6 |
| 20260505051655 | 58 | 347 | 1.7 | 1.7 | 0.00 | 0.00 | 0.00 | 84 | 1011.4 |
| 20260505051153 | 58 | 348 | 0.9 | 0.9 | 0.00 | 0.00 | 0.00 | 84 | 1011.6 |
| 20260505050651 | 59 | 325 | 1.7 | 1.7 | 0.00 | 0.00 | 0.00 | 83 | 1011.5 |
| 20260505050150 | 59 | 336 | 1.7 | 1.7 | 0.00 | 0.00 | 0.00 | 83 | 1011.4 |
| 20260505041624 | 60 | 336 | 0.0 | 0.0 | 0.00 | 0.00 | 0.00 | 83 | 1010.8 |
| 20260505041122 | 60 | 337 | 0.0 | 0.0 | 0.00 | 0.00 | 0.00 | 83 | 1010.8 |
| 20260505040619 | 61 | 337 | 0.0 | 0.0 | 0.00 | 0.00 | 0.00 | 83 | 1010.5 |
| 20260505040116 | 61 | 336 | 0.0 | 0.0 | 0.00 | 0.00 | 0.00 | 83 | 1010.4 |
| 20260505035612 | 61 | 352 | 0.0 | 0.0 | 0.00 | 0.00 | 0.00 | 83 | 1010.4 |
| 20260505035108 | 61 | 321 | 0.0 | 0.0 | 0.00 | 0.00 | 0.00 | 84 | 1010.4 |
| 20260505034605 | 61 | 321 | 0.0 | 0.0 | 0.00 | 0.00 | 0.00 | 84 | 1010.2 |
| 20260505034102 | 62 | 322 | 0.0 | 0.0 | 0.00 | 0.00 | 0.00 | 83 | 1010.2 |
| 20260505033559 | 62 | 321 | 0.0 | 0.0 | 0.00 | 0.00 | 0.00 | 82 | 1009.9 |
| 20260505033058 | 63 | 337 | 0.0 | 0.0 | 0.00 | 0.00 | 0.00 | 80 | 1009.8 |
| 20260505032555 | 63 | 256 | 0.0 | 0.0 | 0.00 | 0.00 | 0.00 | 80 | 1009.7 |
| 20260505032051 | 64 | 255 | 0.9 | 0.9 | 0.00 | 0.00 | 0.00 | 78 | 1009.7 |
| 20260505031548 | 64 | 348 | 0.0 | 0.0 | 0.00 | 0.00 | 0.00 | 78 | 1009.5 |
| 20260505031044 | 64 | 274 | 0.0 | 0.0 | 0.00 | 0.00 | 0.00 | 77 | 1009.4 |
| 20260505030542 | 64 | 307 | 2.6 | 2.6 | 0.00 | 0.00 | 0.00 | 77 | 1009.7 |
| 20260505030037 | 65 | 303 | 2.6 | 2.6 | 0.00 | 0.00 | 0.00 | 76 | 1009.2 |
| 20260505025533 | 65 | 274 | 3.5 | 3.5 | 0.00 | 0.00 | 0.00 | 75 | 1009.2 |